Hourly Data Report for September 20, 2017

All times are specified in Local Standard Time (LST). Add 1 hour to adjust for Daylight Saving Time where and when it is observed.

QIKIQTARJUAQ A
NUNAVUT

67°32'48.000" N
64°01'54.000" W
5.50 m
2400577
YVM

Download Data

Hourly Data (September 2017)
Hourly Data Report for September 20, 2017
Temp Definition
°C
Dew Point Temp Definition
°C
Rel Hum Definition
%
Wind Dir Definition
10's deg

Wind Spd Definition
km/h
Visibility Definition
km
Stn Press Definition
kPa
Hmdx Definition


Wind Chill Definition


Weather Definition


TIME
00:00 Legend Double Dagger 1.6 1.5 99 2 13 9.7 101.92     Rain,Fog
01:00 Legend Double Dagger 1.5 1.4 99 2 13 16.1 101.96     Rain
02:00 Legend Double Dagger 1.1 1.1 100 2 15 16.1 101.99     Rain
03:00 Legend Double Dagger 0.8 0.8 100 1 21 8.1 102.03     Snow
04:00 Legend Double Dagger 0.8 0.7 99 1 17 4.8 102.07     Snow
05:00 Legend Double Dagger 0.6 0.6 100 2 15 4.8 102.12     Snow
06:00 Legend Double Dagger 0.5 0.5 100 2 13 4.8 102.15     Snow
07:00 Legend Double Dagger 0.5 0.5 100 3 13 6.4 102.20     Snow
08:00 Legend Double Dagger 0.8 0.7 99 1 17 14.5 102.23     Rain
09:00 Legend Double Dagger 0.9 0.8 99 3 13 16.1 102.25     Rain
10:00 Legend Double Dagger 1.2 1.1 99 4 5 6.4 102.27     Snow
11:00 Legend Double Dagger 0.8 0.7 99   0 4.0 102.29     Fog
12:00 Legend Double Dagger 0.8 0.7 100 3 5 2.4 102.29     Fog
13:00 Legend Double Dagger 1.1 1.0 99 36 15 9.7 102.32     Snow
14:00 Legend Double Dagger 1.1 0.9 98 1 13 16.1 102.35     Rain
15:00 Legend Double Dagger 1.0 0.9 99 36 13 16.1 102.40     LegendNANA
16:00 Legend Double Dagger 0.8 0.7 99 35 11 6.4 102.41     Rain,Fog
17:00 Legend Double Dagger 0.7 0.4 98 3 8 12.9 102.41     Rain
18:00 Legend Double Dagger 0.6 0.3 98 2 13 6.4 102.42     Freezing Rain,Fog
19:00 Legend Double Dagger 0.6 -0.2 94 2 9 9.7 102.41     Rain,Fog
20:00 Legend Double Dagger 0.4 0.1 98 1 9 16.1 102.39     LegendNANA
21:00 Legend Double Dagger 0.1 0.1 100 3 5 2.8 102.37     Freezing Rain,Fog
22:00 Legend Double Dagger 0.0 0.0 100 5 5 14.5 102.34   -2 LegendNANA
23:00 Legend Double Dagger 0.2 -0.4 96 2 4 16.1 102.31     LegendNANA

Notes on Data Quality.

Legend

  • E = Estimated
  • M = Missing
  • NA = Not Available
  • ‡ = Partner data that is not subject to review by the National Climate Archives
Date modified: